Lid_Strength_Index
3 3 4 5 5 5 5 4 4 1 1 1 1 1 0 1 1 4 7 7 8 11 11 11 11 13 13 14 15 14 13 13 13 13 13 15 15 15 16 16 16 16 17 17 17 18 18 12 11 13 12 12 12 12
3 3 4 5 5 5 5 4 4 1 1 2 1 0 1 1 1 3 7 6 6 9 10 9 9 10 11 11 13 14 13 14 13 14 15 15 16 17 16 16 15 16 15 16 15 15 12 12 12 11 11 11 12 12
3 3 5 6 6 5 5 4 4 3 2 2 2 1 1 1 1 2 5 7 7 9 10 10 11 8 8 8 8 11 12 11 11 11 13 14 15 15 16 15 15 14 13 14 14 14 14 13 12 12 12 12 11 10
4 3 5 5 6 5 5 4 4 3 2 2 2 2 1 1 1 2 5 6 7 8 11 10 8 10 8 8 8 8 9 9 9 10 12 13 13 13 15 14 15 14 13 14 15 14 13 13 12 12 12 11 11 11
4 3 5 6 6 6 5 4 3 3 2 2 2 2 1 1 1 2 4 4 4 7 9 9 8 8 8 8 9 9 9 10 11 12 13 13 13 13 13 14 15 14 14 15 15 12 12 12 12 12 12 12 12 12
4 4 5 6 6 6 6 4 4 2 2 2 2 2 1 1 2 3 6 5 5 5 8 11 7 8 8 8 8 9 10 11 12 12 13 13 11 13 16 15 13 13 12 12 12 12 13 13 13 13 13 14 14 14
4 4 5 6 6 6 5 4 3 3 3 3 2 2 1 2 4 6 7 6 4 5 9 12 11 8 8 7 8 8 8 10 11 13 14 14 13 13 15 16 13 13 12 12 12 12 13 13 13 14 14 13 12 13
4 4 6 6 6 6 6 4 3 3 2 2 2 2 2 3 4 6 4 4 5 7 9 14 13 11 8 9 10 8 9 9 9 10 11 12 12 13 15 14 14 13 13 13 14 13 12 14 15 14 14 14 15 15
4 4 6 6 7 7 6 3 3 3 3 2 2 3 4 6 7 6 4 4 5 7 12 14 14 14 9 11 10 10 9 11 9 11 11 11 14 16 14 14 14 14 14 15 15 16 16 15 15 14 14 16 16 15
4 4 6 6 7 7 7 3 3 3 3 3 5 8 10 7 5 5 7 8 9 9 12 13 12 13 11 11 13 12 12 13 14 12 11 13 16 14 14 13 12 13 13 15 15 17 16 19 19 17 16 15 15 15
4 4 6 7 7 7 7 3 3 3 4 6 10 11 8 6 9 11 14 14 14 14 12 12 12 13 11 13 14 13 15 16 17 17 14 17 18 16 15 15 15 14 13 14 14 15 15 15 16 15 15 16 16 16
4 5 7 7 7 7 7 5 3 4 5 7 8 7 9 11 13 15 18 17 14 16 13 12 14 13 12 11 13 14 19 20 23 15 15 20 18 17 16 15 14 14 13 14 15 15 15 15 15 16 16 16 16 16
4 5 7 7 7 7 7 4 3 5 5 7 9 12 11 13 17 17 18 17 21 18 13 12 13 12 13 14 17 18 22 21 16 17 19 18 17 17 17 16 15 14 14 15 15 15 16 16 16 16 16 16 16 16
4 4 6 7 7 7 7 4 4 6 8 12 13 15 14 16 16 18 18 18 17 14 12 12 13 13 14 17 16 17 18 16 19 22 21 19 18 16 17 16 15 16 15 16 16 16 17 17 17 17 17 17 17 17
4 4 5 6 6 7 8 6 6 8 10 13 12 15 15 18 19 24 20 15 13 11 13 15 16 14 16 15 15 16 17 19 18 22 21 21 21 18 17 17 17 17 17 17 17 17 17 17 18 18 18 18 18 18
4 5 6 6 6 7 8 9 8 10 13 13 14 17 16 19 17 16 16 14 12 12 15 16 20 21 18 18 17 22 20 22 20 20 20 19 16 16 16 17 17 17 17 17 17 17 17 17 17 17 18 19 19 19
4 7 5 5 6 7 8 11 11 13 13 13 16 15 18 21 17 15 13 12 10 12 19 19 20 21 17 18 19 22 22 21 21 21 18 15 15 16 16 16 16 16 16 16 17 17 17 17 18 18 18 19 19 19
7 6 4 5 6 8 10 12 12 12 14 15 15 16 14 14 14 13 13 13 12 15 16 19 17 19 21 22 22 20 22 24 22 19 17 16 17 17 16 15 15 16 16 17 20 22 22 22 19 18 21 22 22 21
5 6 4 5 6 9 11 11 11 14 14 14 14 14 14 14 14 13 13 13 13 14 15 16 19 23 20 20 21 24 24 21 17 17 17 16 15 15 16 19 19 20 20 22 19 19 19 19 19 19 20 20 20 20
3 4 4 5 6 10 11 12 10 12 14 13 13 14 14 14 13 13 13 14 14 14 14 17 18 17 17 17 18 18 18 16 14 16 16 16 17 20 20 21 18 19 20 20 20 19 21 20 20 20 20 20 20 21
5 5 5 6 8 9 10 11 12 12 12 14 13 13 15 13 13 13 14 13 13 15 17 16 16 17 17 17 15 15 16 15 16 16 16 18 18 20 22 23 22 18 19 20 20 19 19 21 22 22 23 21 20 20
6 4 7 7 10 10 12 11 12 12 14 14 14 13 14 14 14 14 13 14 15 16 15 15 17 17 17 17 17 17 16 16 16 15 15 15 18 20 21 22 22 26 25 26 23 22 23 22 21 21 21 22 21 21
4 5 9 12 12 14 14 11 14 13 14 15 13 15 15 15 14 12 15 14 15 15 15 17 19 18 18 18 18 18 18 17 19 19 18 19 20 20 21 21 23 23 24 23 22 21 22 18 18 22 21 22 22 22
6 13 14 16 14 15 13 14 13 14 14 15 16 18 17 16 13 14 16 16 16 15 16 17 17 18 19 19 19 20 19 19 19 19 19 19 20 19 19 19 20 22 21 21 20 20 20 21 20 22 23 24 24 24
15 17 18 21 18 16 16 15 15 16 17 16 17 17 17 16 16 16 17 17 16 17 18 17 17 17 19 20 19 19 19 18 18 18 17 17 19 20 20 20 20 20 19 20 21 21 23 23 23 23 24 24 25 26
18 17 17 22 17 17 16 15 15 16 15 17 17 17 17 16 16 18 18 18 18 18 19 19 19 19 19 19 19 19 19 19 17 18 18 17 18 20 22 21 22 21 20 20 21 21 22 23 23 25 25 24 19 25
20 17 11 10 13 14 15 13 13 15 16 16 15 16 16 17 18 18 19 19 18 19 19 19 19 18 19 19 18 19 19 21 19 19 18 19 19 18 20 20 22 21 19 19 20 21 22 22 23 24 24 25 25 24
14 14 18 16 17 18 19 19 19 19 19 15 14 17 17 17 18 20 21 20 20 20 20 20 20 20 20 20 19 18 19 19 19 19 18 19 19 20 19 18 18 15 20 21 21 21 21 22 22 23 23 24 25 25
16 13 14 16 18 19 20 19 19 17 14 16 18 17 18 20 22 21 20 20 20 20 20 20 21 21 19 19 19 19 19 20 21 22 22 23 23 21 22 21 21 21 21 20 15 18 21 21 22 22 24 24 25 27
13 16 16 14 15 15 18 18 20 18 17 18 17 19 19 21 21 20 20 21 21 22 23 23 23 23 23 21 21 20 20 21 21 21 21 23 23 22 24 22 22 22 21 21 21 21 16 22 22 25 25 25 25 25
16 19 20 20 20 22 21 15 16 15 20 23 23 21 22 23 21 21 22 23 23 23 22 23 24 24 21 21 24 23 22 21 23 22 22 19 20 20 20 20 21 22 22 22 23 24 26 27 28 28 27 28 27 24
13 16 16 16 19 19 15 16 21 23 21 22 23 25 24 22 24 24 21 23 22 21 20 20 20 21 20 20 19 20 16 21 20 18 18 18 18 18 18 20 22 22 22 22 24 24 26 27 27 27 25 27 27 26
20 20 19 20 23 22 20 20 20 23 24 25 24 21 23 20 22 22 19 21 22 21 20 21 20 19 18 18 17 16 15 18 16 12 12 13 14 16 20 21 21 22 21 22 23 24 25 27 27 26 26 27 28 27